AFR76VN LFML-LFPG

Flight info

Callsign AFR76VN
Flight time 1h 17m
Altitude 34000
Route ETREK DCT RUSIT DCT BULOL DCT LOGNI DCT MOKIP DCT ARFOZ DCT TINIL
Aircraft A320/M-SDE2E3FGIJ1J4RWY/HB1D1G1

Departure

Time 2026-04-30 10:19
Airport Marseille Provence Airport (LFML)

Arrival

Time 2026-04-30 11:37
Airport Charles de Gaulle International Airport (LFPG)
Time Latitude Longitude Altitude Speed Heading
2026-04-30 09:50 43.43862 5.22304 38 ft 0 kts 73°
2026-04-30 10:08 43.43855 5.22274 35 ft 4 kts 68°
2026-04-30 10:08 43.43844 5.22242 35 ft 4 kts 54°
2026-04-30 10:08 43.43826 5.22219 35 ft 4 kts
2026-04-30 10:09 43.43817 5.22219 35 ft 0 kts 343°
2026-04-30 10:11 43.43819 5.22219 37 ft 2 kts 343°
2026-04-30 10:11 43.43832 5.22213 37 ft 2 kts 342°
2026-04-30 10:11 43.43858 5.22200 35 ft 6 kts 337°
2026-04-30 10:12 43.43901 5.22163 37 ft 9 kts 321°
2026-04-30 10:12 43.43950 5.22095 37 ft 11 kts 314°
2026-04-30 10:12 43.44005 5.22016 37 ft 11 kts 314°
2026-04-30 10:12 43.44064 5.21934 37 ft 13 kts 314°
2026-04-30 10:13 43.44109 5.21869 37 ft 7 kts 313°
2026-04-30 10:13 43.44113 5.21809 37 ft 8 kts 235°
2026-04-30 10:13 43.44074 5.21759 37 ft 8 kts 224°
2026-04-30 10:13 43.44034 5.21705 37 ft 8 kts 224°
2026-04-30 10:14 43.43994 5.21654 37 ft 10 kts 224°
2026-04-30 10:14 43.43937 5.21578 37 ft 9 kts 224°
2026-04-30 10:14 43.43972 5.21416 37 ft 13 kts 314°
2026-04-30 10:15 43.44039 5.21320 37 ft 15 kts 314°
2026-04-30 10:15 43.44116 5.21210 37 ft 17 kts 314°
2026-04-30 10:15 43.44202 5.21088 37 ft 19 kts 314°
2026-04-30 10:15 43.44280 5.20958 35 ft 18 kts 301°
2026-04-30 10:16 43.44347 5.20812 37 ft 19 kts 310°
2026-04-30 10:16 43.44439 5.20680 37 ft 20 kts 311°
2026-04-30 10:16 43.44539 5.20539 37 ft 21 kts 314°
2026-04-30 10:17 43.44756 5.20228 37 ft 24 kts 314°
2026-04-30 10:17 43.44926 5.19986 37 ft 11 kts 314°
2026-04-30 10:17 43.44974 5.19916 37 ft 9 kts 310°
2026-04-30 10:18 43.44978 5.19841 35 ft 8 kts 243°
2026-04-30 10:18 43.44935 5.19792 36 ft 8 kts 207°
2026-04-30 10:18 43.44883 5.19792 35 ft 8 kts 160°
2026-04-30 10:19 43.44631 5.20135 35 ft 81 kts 134°
2026-04-30 10:19 43.44086 5.20917 34 ft 143 kts 134°
2026-04-30 10:19 43.43301 5.22043 268 ft 169 kts 135°
2026-04-30 10:19 43.42563 5.23221 1006 ft 164 kts 124°
2026-04-30 10:20 43.42113 5.24663 1716 ft 165 kts 104°
2026-04-30 10:20 43.42260 5.27794 3148 ft 167 kts 75°
2026-04-30 10:20 43.42939 5.29164 3662 ft 190 kts 40°
2026-04-30 10:21 43.44294 5.29716 4017 ft 225 kts 357°
2026-04-30 10:21 43.45913 5.29214 4449 ft 252 kts 346°
2026-04-30 10:21 43.47666 5.28447 4953 ft 276 kts 344°
2026-04-30 10:21 43.49486 5.27581 5695 ft 283 kts 342°
2026-04-30 10:22 43.51355 5.26680 6631 ft 285 kts 342°
2026-04-30 10:22 43.53240 5.25782 7509 ft 288 kts 342°
2026-04-30 10:22 43.55144 5.24893 8437 ft 290 kts 341°
2026-04-30 10:22 43.57071 5.24008 9343 ft 293 kts 341°
2026-04-30 10:23 43.59017 5.23128 10209 ft 296 kts 340°
2026-04-30 10:23 43.61038 5.22220 10591 ft 317 kts 340°
2026-04-30 10:23 43.63198 5.21247 10995 ft 334 kts 341°
2026-04-30 10:23 43.65426 5.20245 11697 ft 339 kts 340°
2026-04-30 10:24 43.67649 5.19245 12461 ft 342 kts 340°
2026-04-30 10:24 43.69925 5.18223 13238 ft 345 kts 340°
2026-04-30 10:24 43.72219 5.17191 14001 ft 348 kts 340°
2026-04-30 10:24 43.74523 5.16122 14684 ft 351 kts 340°
2026-04-30 10:25 43.76839 5.15024 15361 ft 354 kts 339°
2026-04-30 10:25 43.79177 5.13903 16032 ft 357 kts 339°
2026-04-30 10:25 43.81531 5.12775 16705 ft 360 kts 339°
2026-04-30 10:25 43.83881 5.11652 17338 ft 364 kts 340°
2026-04-30 10:26 43.86288 5.10507 17979 ft 368 kts 339°
2026-04-30 10:26 43.88745 5.09465 18593 ft 372 kts 346°
2026-04-30 10:26 43.91313 5.08851 19149 ft 376 kts 349°
2026-04-30 10:26 43.93901 5.08266 19717 ft 379 kts 349°
2026-04-30 10:27 43.96512 5.07674 20285 ft 382 kts 349°
2026-04-30 10:27 43.99142 5.07075 20846 ft 385 kts 349°
2026-04-30 10:27 44.01794 5.06468 21404 ft 388 kts 349°
2026-04-30 10:27 44.04433 5.05859 21945 ft 391 kts 349°
2026-04-30 10:28 44.07127 5.05235 22488 ft 394 kts 349°
2026-04-30 10:28 44.09846 5.04605 23041 ft 397 kts 349°
2026-04-30 10:28 44.12587 5.03971 23562 ft 401 kts 349°
2026-04-30 10:28 44.15346 5.03337 24008 ft 404 kts 349°
2026-04-30 10:29 44.18129 5.02700 24439 ft 407 kts 349°
2026-04-30 10:29 44.20929 5.02058 24874 ft 409 kts 349°
2026-04-30 10:29 44.23746 5.01412 25305 ft 411 kts 348°
2026-04-30 10:29 44.26577 5.00757 25721 ft 414 kts 348°
2026-04-30 10:30 44.29423 5.00096 26126 ft 416 kts 348°
2026-04-30 10:30 44.32247 4.99440 26514 ft 418 kts 348°
2026-04-30 10:30 44.35123 4.98774 26916 ft 420 kts 349°
2026-04-30 10:30 44.38014 4.98108 27303 ft 422 kts 348°
2026-04-30 10:31 44.40921 4.97435 27676 ft 424 kts 348°
2026-04-30 10:31 44.43843 4.96754 28059 ft 427 kts 348°
2026-04-30 10:31 44.46778 4.96071 28423 ft 429 kts 348°
2026-04-30 10:31 44.49729 4.95385 28781 ft 431 kts 348°
2026-04-30 10:32 44.52696 4.94696 29104 ft 434 kts 349°
2026-04-30 10:32 44.55645 4.94008 29427 ft 437 kts 349°
2026-04-30 10:32 44.58651 4.93303 29759 ft 439 kts 349°
2026-04-30 10:32 44.61670 4.92597 30082 ft 441 kts 349°
2026-04-30 10:33 44.64702 4.91888 30365 ft 443 kts 349°
2026-04-30 10:33 44.67749 4.91176 30629 ft 445 kts 349°
2026-04-30 10:33 44.70808 4.90451 30886 ft 446 kts 347°
2026-04-30 10:33 44.73808 4.89332 31132 ft 446 kts 339°
2026-04-30 10:34 44.76696 4.87738 31368 ft 447 kts 336°
2026-04-30 10:34 44.79550 4.86127 31613 ft 448 kts 336°
2026-04-30 10:34 44.82443 4.84494 31959 ft 447 kts 336°
2026-04-30 10:34 44.85325 4.82868 32314 ft 446 kts 336°
2026-04-30 10:35 44.88205 4.81242 32641 ft 446 kts 336°
2026-04-30 10:35 44.91081 4.79617 32973 ft 445 kts 336°
2026-04-30 10:35 44.93944 4.77997 33344 ft 443 kts 336°
2026-04-30 10:35 44.96798 4.76381 33710 ft 441 kts 336°
2026-04-30 10:36 44.99643 4.74770 34050 ft 441 kts 336°
2026-04-30 10:36 45.02441 4.73182 34130 ft 435 kts 336°
2026-04-30 10:36 45.07992 4.70036 34134 ft 427 kts 336°
2026-04-30 10:37 45.13496 4.66918 34130 ft 426 kts 339°
2026-04-30 10:37 45.19336 4.65570 34130 ft 430 kts 360°
2026-04-30 10:38 45.25164 4.67196 34133 ft 434 kts 19°
2026-04-30 10:38 45.30830 4.70168 34135 ft 434 kts 19°
2026-04-30 10:39 45.36498 4.73136 34131 ft 434 kts 19°
2026-04-30 10:39 45.42160 4.76095 34129 ft 433 kts 19°
2026-04-30 10:40 45.47815 4.79057 34132 ft 433 kts 19°
2026-04-30 10:40 45.53427 4.81998 34133 ft 432 kts 19°
2026-04-30 10:41 45.59074 4.84967 34129 ft 432 kts 19°
2026-04-30 10:41 45.64708 4.87943 34126 ft 432 kts 19°
2026-04-30 10:42 45.70340 4.90924 34144 ft 431 kts 19°
2026-04-30 10:42 45.75931 4.93894 34141 ft 431 kts 19°
2026-04-30 10:43 45.81554 4.96881 34138 ft 431 kts 19°
2026-04-30 10:43 45.87175 4.99876 34138 ft 431 kts 19°
2026-04-30 10:44 45.92785 5.02874 34141 ft 430 kts 19°
2026-04-30 10:44 45.98384 5.05875 34143 ft 429 kts 19°
2026-04-30 10:45 46.03990 5.08594 34137 ft 427 kts 10°
2026-04-30 10:45 46.09876 5.09220 34137 ft 424 kts 359°
2026-04-30 10:46 46.15774 5.09236 34138 ft 424 kts 359°
2026-04-30 10:46 46.21670 5.09275 34137 ft 424 kts 359°
2026-04-30 10:47 46.27525 5.09312 34142 ft 424 kts 359°
2026-04-30 10:47 46.33416 5.09329 34140 ft 423 kts 359°
2026-04-30 10:48 46.39305 5.09339 34140 ft 423 kts 359°
2026-04-30 10:48 46.45195 5.09360 34138 ft 423 kts 359°
2026-04-30 10:49 46.51076 5.09393 34142 ft 423 kts
2026-04-30 10:49 46.56916 5.09422 34145 ft 422 kts
2026-04-30 10:50 46.62791 5.09447 34144 ft 422 kts
2026-04-30 10:50 46.68668 5.09464 34142 ft 422 kts
2026-04-30 10:51 46.74540 5.09491 34147 ft 422 kts
2026-04-30 10:51 46.80411 5.09517 34148 ft 422 kts
2026-04-30 10:52 46.86241 5.09531 34136 ft 422 kts
2026-04-30 10:52 46.92131 5.09548 34126 ft 424 kts
2026-04-30 10:53 46.98047 5.09581 34129 ft 426 kts
2026-04-30 10:53 47.02983 5.09605 34138 ft 427 kts
2026-04-30 10:54 47.09899 5.09642 34139 ft 428 kts
2026-04-30 10:54 47.15860 5.09663 34136 ft 429 kts
2026-04-30 10:55 47.21826 5.09685 34151 ft 429 kts
2026-04-30 10:55 47.26786 5.09726 34152 ft 429 kts
2026-04-30 10:56 47.33722 5.09769 34150 ft 429 kts
2026-04-30 10:56 47.39690 5.09788 33900 ft 427 kts
2026-04-30 10:57 47.41655 5.09793 33719 ft 426 kts
2026-04-30 10:57 47.44610 5.09799 33447 ft 424 kts
2026-04-30 10:57 47.47552 5.09806 33177 ft 422 kts
2026-04-30 10:57 47.50479 5.09816 32902 ft 419 kts
2026-04-30 10:58 47.53378 5.09821 32426 ft 415 kts
2026-04-30 10:58 47.56252 5.09388 31913 ft 416 kts 351°
2026-04-30 10:58 47.59888 5.07616 31236 ft 418 kts 336°
2026-04-30 10:58 47.61609 5.06206 30888 ft 419 kts 329°
2026-04-30 10:59 47.63926 5.03583 30374 ft 419 kts 322°
2026-04-30 10:59 47.66147 5.00795 29811 ft 418 kts 322°
2026-04-30 10:59 47.68327 4.98052 29317 ft 414 kts 322°
2026-04-30 10:59 47.70515 4.95297 28836 ft 411 kts 322°
2026-04-30 11:00 47.72684 4.92563 28367 ft 408 kts 322°
2026-04-30 11:00 47.74838 4.89846 27969 ft 404 kts 322°
2026-04-30 11:00 47.76984 4.87132 27740 ft 405 kts 322°
2026-04-30 11:00 47.79129 4.84418 27470 ft 404 kts 322°
2026-04-30 11:01 47.81265 4.81708 27203 ft 403 kts 322°
2026-04-30 11:01 47.83392 4.79005 26934 ft 401 kts 322°
2026-04-30 11:01 47.85483 4.76345 26664 ft 400 kts 322°
2026-04-30 11:01 47.87593 4.73656 26398 ft 398 kts 322°
2026-04-30 11:02 47.89692 4.70977 26131 ft 397 kts 322°
2026-04-30 11:02 47.91785 4.68306 25850 ft 395 kts 322°
2026-04-30 11:02 47.93867 4.65643 25587 ft 394 kts 322°
2026-04-30 11:02 47.96622 4.62116 25249 ft 394 kts 322°
2026-04-30 11:03 47.98022 4.60322 25072 ft 393 kts 322°
2026-04-30 11:03 48.00094 4.57667 24806 ft 392 kts 322°
2026-04-30 11:03 48.02157 4.55023 24544 ft 390 kts 323°
2026-04-30 11:04 48.06234 4.49790 24029 ft 388 kts 323°
2026-04-30 11:04 48.08275 4.47166 23782 ft 386 kts 323°
2026-04-30 11:04 48.10305 4.44545 23493 ft 385 kts 323°
2026-04-30 11:04 48.12328 4.41932 23229 ft 383 kts 322°
2026-04-30 11:05 48.14339 4.39329 22976 ft 382 kts 322°
2026-04-30 11:05 48.16341 4.36733 22727 ft 380 kts 322°
2026-04-30 11:05 48.18336 4.34147 22474 ft 378 kts 322°
2026-04-30 11:05 48.20296 4.31607 22226 ft 377 kts 322°
2026-04-30 11:06 48.22273 4.29038 21976 ft 375 kts 322°
2026-04-30 11:06 48.24241 4.26483 21727 ft 374 kts 322°
2026-04-30 11:06 48.26175 4.23878 21476 ft 375 kts 316°
2026-04-30 11:06 48.27878 4.20911 21234 ft 375 kts 311°
2026-04-30 11:07 48.29532 4.17901 20980 ft 373 kts 311°
2026-04-30 11:07 48.31178 4.14896 20727 ft 371 kts 311°
2026-04-30 11:07 48.32814 4.11905 20484 ft 370 kts 311°
2026-04-30 11:07 48.34422 4.08964 20247 ft 368 kts 311°
2026-04-30 11:08 48.36047 4.05992 19926 ft 367 kts 311°
2026-04-30 11:08 48.37665 4.03036 19584 ft 365 kts 311°
2026-04-30 11:08 48.39272 4.00099 19253 ft 363 kts 311°
2026-04-30 11:08 48.40873 3.97169 18922 ft 361 kts 310°
2026-04-30 11:09 48.42461 3.94261 18587 ft 358 kts 310°
2026-04-30 11:09 48.44034 3.91373 18236 ft 355 kts 310°
2026-04-30 11:09 48.45592 3.88504 17903 ft 353 kts 310°
2026-04-30 11:09 48.47143 3.85654 17584 ft 351 kts 310°
2026-04-30 11:10 48.48689 3.82812 17257 ft 351 kts 310°
2026-04-30 11:10 48.50216 3.79996 16942 ft 351 kts 310°
2026-04-30 11:10 48.51755 3.77151 16625 ft 351 kts 310°
2026-04-30 11:10 48.53291 3.74306 16309 ft 348 kts 310°
2026-04-30 11:11 48.54692 3.71334 16051 ft 346 kts 303°
2026-04-30 11:11 48.55993 3.68294 15887 ft 343 kts 304°
2026-04-30 11:11 48.57290 3.65281 15712 ft 341 kts 304°
2026-04-30 11:11 48.58583 3.62284 15532 ft 340 kts 304°
2026-04-30 11:12 48.59869 3.59299 15355 ft 339 kts 304°
2026-04-30 11:12 48.61134 3.56356 15185 ft 339 kts 304°
2026-04-30 11:12 48.62414 3.53374 14981 ft 338 kts 304°
2026-04-30 11:12 48.63694 3.50387 14772 ft 339 kts 304°
2026-04-30 11:13 48.64982 3.47379 14569 ft 341 kts 304°
2026-04-30 11:13 48.66267 3.44369 14351 ft 340 kts 303°
2026-04-30 11:13 48.67542 3.41377 14200 ft 337 kts 303°
2026-04-30 11:13 48.68809 3.38399 14179 ft 336 kts 303°
2026-04-30 11:14 48.70072 3.35423 14186 ft 336 kts 303°
2026-04-30 11:14 48.71337 3.32451 14188 ft 336 kts 303°
2026-04-30 11:14 48.72605 3.29478 14187 ft 336 kts 304°
2026-04-30 11:14 48.73858 3.26539 14188 ft 338 kts 304°
2026-04-30 11:15 48.75133 3.23538 14184 ft 339 kts 304°
2026-04-30 11:15 48.76412 3.20524 14187 ft 340 kts 304°
2026-04-30 11:15 48.77691 3.17498 14187 ft 341 kts 304°
2026-04-30 11:15 48.78970 3.14464 14187 ft 342 kts 304°
2026-04-30 11:16 48.80254 3.11416 14184 ft 343 kts 304°
2026-04-30 11:16 48.81535 3.08365 14185 ft 343 kts 304°
2026-04-30 11:16 48.82819 3.05310 14191 ft 343 kts 303°
2026-04-30 11:16 48.84092 3.02306 14185 ft 343 kts 306°
2026-04-30 11:17 48.85593 2.99515 14186 ft 341 kts 314°
2026-04-30 11:17 48.87198 2.96864 14179 ft 341 kts 314°
2026-04-30 11:17 48.88799 2.94212 14183 ft 339 kts 314°
2026-04-30 11:17 48.90392 2.91572 14181 ft 339 kts 314°
2026-04-30 11:18 48.91941 2.88868 14180 ft 338 kts 306°
2026-04-30 11:18 48.93490 2.82360 14182 ft 329 kts 272°
2026-04-30 11:18 48.93409 2.78893 14188 ft 329 kts 263°
2026-04-30 11:19 48.93224 2.75420 14190 ft 329 kts 263°
2026-04-30 11:19 48.93042 2.72003 14189 ft 329 kts 263°
2026-04-30 11:19 48.92858 2.68550 14190 ft 327 kts 264°
2026-04-30 11:19 48.92675 2.65099 14191 ft 328 kts 263°
2026-04-30 11:20 48.92492 2.61646 14175 ft 326 kts 263°
2026-04-30 11:20 48.92306 2.58217 13840 ft 325 kts 263°
2026-04-30 11:20 48.92116 2.54803 13479 ft 323 kts 263°
2026-04-30 11:20 48.91928 2.51409 13129 ft 321 kts 263°
2026-04-30 11:21 48.91743 2.48038 12793 ft 319 kts 263°
2026-04-30 11:21 48.91564 2.44737 12472 ft 317 kts 263°
2026-04-30 11:21 48.91382 2.41408 12111 ft 315 kts 263°
2026-04-30 11:21 48.91197 2.38092 11744 ft 314 kts 263°
2026-04-30 11:22 48.91013 2.34786 11397 ft 313 kts 263°
2026-04-30 11:22 48.90829 2.31505 11090 ft 310 kts 263°
2026-04-30 11:22 48.90646 2.28245 10754 ft 308 kts 263°
2026-04-30 11:22 48.90463 2.25016 10403 ft 306 kts 263°
2026-04-30 11:23 48.90279 2.21805 10059 ft 305 kts 263°
2026-04-30 11:23 48.90090 2.18612 9741 ft 301 kts 262°
2026-04-30 11:23 48.89725 2.12367 9035 ft 297 kts 263°
2026-04-30 11:24 48.89567 2.09253 8682 ft 295 kts 263°
2026-04-30 11:24 48.89428 2.06149 8329 ft 293 kts 264°
2026-04-30 11:24 48.89295 2.03066 7978 ft 291 kts 264°
2026-04-30 11:25 48.89027 1.96985 7288 ft 286 kts 263°
2026-04-30 11:25 48.89006 1.93969 6951 ft 287 kts 277°
2026-04-30 11:25 48.90952 1.88980 6432 ft 274 kts 326°
2026-04-30 11:26 48.94401 1.87605 5929 ft 252 kts 11°
2026-04-30 11:26 48.96032 1.88352 5677 ft 240 kts 33°
2026-04-30 11:26 48.97332 1.89809 5428 ft 227 kts 52°
2026-04-30 11:27 48.98213 1.91735 5179 ft 219 kts 70°
2026-04-30 11:27 48.98645 1.93912 5023 ft 213 kts 86°
2026-04-30 11:27 48.98642 1.96078 4977 ft 196 kts 101°
2026-04-30 11:27 48.98453 1.98035 4978 ft 183 kts 102°
2026-04-30 11:28 48.98096 2.01793 4983 ft 179 kts 101°
2026-04-30 11:28 48.97916 2.03670 4989 ft 180 kts 102°
2026-04-30 11:28 48.97735 2.05553 4985 ft 179 kts 101°
2026-04-30 11:29 48.97556 2.07430 4987 ft 179 kts 102°
2026-04-30 11:29 48.97378 2.09296 4981 ft 178 kts 102°
2026-04-30 11:29 48.97036 2.13057 4979 ft 182 kts 96°
2026-04-30 11:30 48.97099 2.16882 4986 ft 181 kts 90°
2026-04-30 11:30 48.97197 2.18788 4978 ft 181 kts 89°
2026-04-30 11:30 48.97303 2.20708 4904 ft 182 kts 89°
2026-04-30 11:31 48.97411 2.22624 4702 ft 182 kts 89°
2026-04-30 11:31 48.97520 2.24535 4470 ft 181 kts 89°
2026-04-30 11:31 48.97627 2.26424 4270 ft 177 kts 89°
2026-04-30 11:31 48.97732 2.28280 4010 ft 175 kts 89°
2026-04-30 11:32 48.97835 2.30117 3775 ft 173 kts 89°
2026-04-30 11:32 48.97936 2.31925 3553 ft 174 kts 89°
2026-04-30 11:32 48.98039 2.33756 3322 ft 173 kts 89°
2026-04-30 11:33 48.98240 2.37352 2869 ft 166 kts 88°
2026-04-30 11:33 48.98334 2.39050 2648 ft 156 kts 88°
2026-04-30 11:33 48.98423 2.40652 2448 ft 149 kts 88°
2026-04-30 11:33 48.98509 2.42216 2249 ft 147 kts 89°
2026-04-30 11:34 48.98591 2.43684 2074 ft 132 kts 87°
2026-04-30 11:34 48.98664 2.45020 1892 ft 123 kts 87°
2026-04-30 11:34 48.98734 2.46304 1721 ft 121 kts 86°
2026-04-30 11:34 48.98803 2.47569 1572 ft 122 kts 86°
2026-04-30 11:35 48.98873 2.48851 1408 ft 122 kts 85°
2026-04-30 11:35 48.98947 2.50125 1236 ft 118 kts 86°
2026-04-30 11:35 48.99032 2.51363 1028 ft 117 kts 86°
2026-04-30 11:35 48.99091 2.52602 866 ft 117 kts 86°
2026-04-30 11:36 48.99148 2.53859 728 ft 120 kts 88°
2026-04-30 11:36 48.99216 2.55137 591 ft 121 kts 88°
2026-04-30 11:36 48.99285 2.56417 430 ft 121 kts 88°
2026-04-30 11:36 48.99357 2.57676 357 ft 114 kts 86°
2026-04-30 11:37 48.99400 2.58632 352 ft 67 kts 85°
2026-04-30 11:37 48.99419 2.58986 354 ft 16 kts 84°
2026-04-30 11:37 48.99443 2.59155 352 ft 17 kts 73°
2026-04-30 11:37 48.99488 2.59324 357 ft 17 kts 65°
2026-04-30 11:38 48.99537 2.59483 357 ft 16 kts 65°
2026-04-30 11:38 48.99569 2.59591 355 ft 10 kts 65°
2026-04-30 11:38 48.99612 2.59684 354 ft 12 kts 31°
2026-04-30 11:38 48.99693 2.59688 354 ft 11 kts 355°
2026-04-30 11:39 48.99771 2.59677 353 ft 12 kts 354°
2026-04-30 11:39 48.99849 2.59667 353 ft 11 kts 355°
2026-04-30 11:39 48.99915 2.59659 361 ft 8 kts 355°
2026-04-30 11:39 48.99977 2.59652 354 ft 9 kts 355°
2026-04-30 11:40 49.00038 2.59645 359 ft 8 kts 355°
2026-04-30 11:40 49.00079 2.59594 356 ft 10 kts 286°
2026-04-30 11:40 49.00074 2.59483 362 ft 12 kts 264°
2026-04-30 11:40 49.00068 2.59359 354 ft 11 kts 266°
2026-04-30 11:41 49.00062 2.59245 354 ft 10 kts 265°
2026-04-30 11:41 49.00055 2.59114 354 ft 14 kts 265°
2026-04-30 11:41 49.00047 2.58968 359 ft 14 kts 265°
2026-04-30 11:41 49.00037 2.58805 354 ft 15 kts 264°
2026-04-30 11:42 49.00028 2.58648 354 ft 14 kts 266°
2026-04-30 11:42 49.00022 2.58504 354 ft 13 kts 265°
2026-04-30 11:42 49.00015 2.58391 362 ft 9 kts 265°
2026-04-30 11:42 49.00042 2.58329 354 ft 7 kts 338°
2026-04-30 11:43 49.00106 2.58316 359 ft 9 kts 355°
2026-04-30 11:43 49.00167 2.58309 354 ft 8 kts 355°
2026-04-30 11:43 49.00220 2.58302 354 ft 5 kts 355°
2026-04-30 11:43 49.00242 2.58316 354 ft 3 kts 49°
2026-04-30 11:44 49.00248 2.58358 354 ft 6 kts 83°
2026-04-30 11:44 49.00251 2.58399 354 ft 4 kts 84°
2026-04-30 11:44 49.00252 2.58410 354 ft 0 kts 83°